Location: Newark
(45.4422°N, 16.2769°E)
Time: 09:27:09
(UTC+00:00)

Tiros 1 despin weight - Pass Details

Date: 24 December 2019
Orbit: 594 x 643 km, 48.2° (Epoch: 21 January)

Event Time Altitude Azimuth Distance (km) Brightness Sun altitude
Rises 21:08:57 0° 197° (SSW) 2,929 - -59.3°
Reaches altitude 10° 21:11:56 10° 178° (S) 2,021 - -59.7°
Maximum altitude 21:15:00 18° 137° (SE) 1,579 - -60.1°
Drops below altitude 10° 21:18:04 10° 95° (E) 2,016 - -60.5°
Sets 21:21:01 0° 76° (ENE) 2,919 - -60.9°
